Voltar ao catálogo

STARLINK-34119

AtivoComunicaçõesVLEO
NORAD 63895·PAYLOAD·🇺🇸 United States

Lançado May 10, 2025 de Cape Canaveral Space Force Station

Loading…

Próximas Passagens (próximas 24 horas)

TLE

AtualizadoSource: CelesTrak SupGP

Época: Sep 14, 2026, 21:41 UTC

1 63895C 25095F   26257.90395833 -.00002992  00000+0 -10836-3 0  2575
2 63895  43.0006 187.8870 0000925 255.6674  73.1120 15.27580780    14

Acompanhe STARLINK-34119 em tempo real com AllMySat

Download on the App Store